Other Public Products
Issued by NWS Grand Forks, ND

Home | Current Version | Previous Version | Text Only | Print | Product List | Glossary On
Versions: 1 2 3 4 5 6 7 8 9 10 11 12 13 14 15 16 17 18 19 20 21 22 23 24 25 26 27 28 29 30 31 32 33 34 35 36 37 38 39 40 41 42 43 44 45 46 47 48 49 50
000
FPUS83 KFGF 261610
OPUFGF
PRAIRIE TO PINES WEATHER ROUNDUP
NATIONAL WEATHER SERVICE EASTERN NORTH DAKOTA/GRAND FORKS ND
1100 AM CDT TUE MAY 26 2015

 **SATELLITE DATA USED TO AUGMENT SKY COVER AT AUTOMATED STATIONS**
 *****  WEATHER ACROSS EASTERN NORTH DAKOTA  *****

CITY           SKY/WX    TMP DP  RH WIND       PRES   REMARKS
GRAND FORKS    MOSUNNY   72  53  51 W5        29.79S
GRAND FORKS AF SUNNY     75  51  43 VRB6      29.79F
GRAND CITY NWS   N/A     70 N/A N/A SW7         N/A
BUXTON         NOT AVBL
DEVILS LAKE    SUNNY     75  52  43 NW12      29.82S
FARGO          MOSUNNY   68  51  54 S9        29.83F
WAHPETON ARPT  PTSUNNY   64  50  59 CALM      29.85S
$$

 *****  WEATHER ACROSS CENTRAL AND WESTERN NORTH DAKOTA  *****

CITY           SKY/WX    TMP DP  RH WIND       PRES   REMARKS
JAMESTOWN      SUNNY     72  52  49 NW10      29.84F
BISMARCK       SUNNY     72  49  44 NW13      29.91F
MINOT          SUNNY     76  47  35 W14       29.88S
MINOT AFB      MOSUNNY   76  48  37 NW17      29.87S
GARRISON         N/A     73  47  39 NW13      29.90F
WILLISTON      SUNNY     69  51  52 VRB6      29.93F
DICKINSON      NOT AVBL
HETTINGER      SUNNY     64  50  60 SW6       29.97F
$$

 *****  OTHER OBSERVATIONS NORTHEAST NORTH DAKOTA  *****

CITY           SKY/WX    TMP DP  RH WIND       PRES   REMARKS
WALHALLA         N/A     77  46  33 N10       29.79S
LANGDON        FAIR      79  45  29 N12G18    29.82S
CAVALIER       FAIR      73  48  40 NW5       29.78F
GRAFTON        FAIR      72  52  49 CALM      29.79F
CANDO          FAIR      77  46  33 NW6       29.83F
FORT TOTTEN    NOT AVBL
ROLLA            N/A     77  39  25 N17       29.85S
RUGBY          NOT AVBL
 ***** THE ABOVE OBSERVATIONS ARE NON NWS ARE NOT QUALITY
        CONTROLLED AND MAY MIS-REPORT RAIN FOR SNOW...
$$

 *****  OTHER OBSERVATIONS SOUTHEAST NORTH DAKOTA *****

CITY           SKY/WX    TMP DP  RH WIND       PRES   REMARKS
COOPERSTOWN    NOT AVBL
VALLEY CITY    FAIR      68  54  60 NW7       29.84F
OAKES            N/A     66  57  72 N8        29.85F
GWINNER        NOT AVBL
SHEYENNE NWR     N/A     70  56  60 SW6       29.95S
BUFFALO        NOT AVBL
WYNDMERE         N/A     70  54  56 SE3         N/A
 ***** THE ABOVE OBSERVATIONS ARE NON NWS ARE NOT QUALITY
       CONTROLLED AND MAY MIS-REPORT RAIN FOR SNOW...
$$

  *****  WEATHER ACROSS NORTHERN MINNESOTA  *****

CITY           SKY/WX    TMP DP  RH WIND       PRES   REMARKS
FLAG ISLAND    SUNNY     59  52  77 S13       29.79F
WARROAD        SUNNY     70  55  60 SW7       29.81F
ROSEAU         SUNNY     72  54  53 SW12      29.80F
HALLOCK        SUNNY     72  55  56 SW3       29.78F
THF RVR FALLS  SUNNY     70  50  49 S12       29.83S
HALSTAD        NOT AVBL
FOSSTON        PTSUNNY   64  54  68 S6        29.85S
BAUDETTE       MOSUNNY   69  51  52 S9        29.82F
WASKISH        PTSUNNY   64  55  72 CALM      29.84F
CROOKSTON      SUNNY     72  54  53 S14       29.81F
$$
  *****  WEATHER ACROSS CENTRAL AND WEST MINNESOTA  *****

CITY           SKY/WX    TMP DP  RH WIND       PRES   REMARKS
BEMIDJI        PTSUNNY   65  54  69 SE7       29.86S
PARK RAPIDS    PTSUNNY   66  52  60 E7        29.85F
WADENA         PTSUNNY   64  54  68 NE7       29.85S
DETROIT LAKES  PTSUNNY   64  54  68 S5        29.87F
MOORHEAD       PTSUNNY   66  54  63 S7        29.85S
FERGUS FALLS   PTSUNNY   66  54  63 E5        29.84F
ELBOW LAKE     FAIR      65  55  68 NE7       29.84S
MORRIS MN      CLOUDY    64  55  72 N8        29.83S
STAPLES        PTSUNNY   63  52  67 NE7       29.84F
WHEATON        PTSUNNY   63  54  72 NE7       29.86S
$$
  *****  WEATHER ELSEWHERE ACROSS MINNESOTA  *****

CITY           SKY/WX    TMP DP  RH WIND       PRES   REMARKS
DULUTH         CLOUDY    56  52  86 E10       29.87R
INTRNTL FALLS  MOSUNNY   66  50  56 SE5       29.85S
ELY            MOSUNNY   63  52  67 E7        29.87F
CLOQUET        CLOUDY    57  54  88 E6        29.86S
BRAINERD       PTSUNNY   62  54  74 NE8       29.84F
HIBBING        MOSUNNY   65  52  62 NE5       29.86F
ALEXANDRIA     CLOUDY    64  52  64 NE10      29.85S
SAINT CLOUD    CLOUDY    58  53  84 NE9       29.82F
MINNEAPOLIS    LGT RAIN  58  56  93 N8        29.80F FOG
$$

  *****  WEATHER ACROSS SOUTH DAKOTA  *****

CITY           SKY/WX    TMP DP  RH WIND       PRES   REMARKS
SIOUX FALLS    CLOUDY    57  52  83 N14       29.83S
BROOKINGS      CLOUDY    59  52  77 N9G16     29.85S
WATERTOWN      CLOUDY    62  52  69 N9        29.85F
HURON          MOSUNNY   70  54  56 N12       29.86F
SISSETON         N/A     67  50  54 CALM      29.84F
ABERDEEN       SUNNY     71  55  56 N15       29.86F
MITCHELL       PTSUNNY   68  52  56 N17       29.87S
PIERRE         SUNNY     67  51  56 NW13      29.91F
MOBRIDGE       SUNNY     68  53  58 NW13      29.90F
RAPID CITY     MOSUNNY   59  52  77 SW9       29.99S
$$

  *****  SOME WEATHER IN NEARBY STATES *****

CITY           SKY/WX    TMP DP  RH WIND       PRES   REMARKS
GLASGOW MT     SUNNY     66  50  56 SE6       29.91F
GREAT FALLS MT LGT RAIN  53  50  89 S3        29.96S
CHEYENNE WY    CLOUDY    57  41  55 S5        30.07S
SCOTTSBLUFF NE CLOUDY    59  52  77 CALM      30.02S
OMAHA NE       CLOUDY    67  59  75 W5        29.78S
DES MOINES IA  LGT RAIN  63  59  87 CALM      29.79R
DAVENPORT IA   CLOUDY    67  63  87 S12       29.75F
CHICAGO IL     CLOUDY    72  65  78 SE13      29.84F
EAU CLAIRE WI  CLOUDY    65  59  81 CALM      29.79F
LA CROSSE WI   RAIN      63  61  93 E6        29.80S FOG
$$

  *****  SOME NATIONAL WEATHER *****

CITY           SKY/WX    TMP DP  RH WIND       PRES   REMARKS
LA GUARDIA NY  MOSUNNY   82  58  43 SW13      30.19F
RALEIGH NC     MOSUNNY   82  66  58 SW12      30.30F
ATLANTA GA     PTSUNNY   78  70  76 S12       30.24S
NEW ORLEANS LA CLOUDY    74  64  71 E8        30.09S
OKLAHOMA CITY  PTSUNNY   69  60  73 S9        29.96F
ALBUQUERQUE NM MOSUNNY   62  44  51 CALM      30.15S
SALT LAKE CITY CLOUDY    61  48  62 S9        30.03S
LOS ANGELES CA CLOUDY    60  55  83 CALM      30.00S
BOISE ID       SUNNY     63  49  60 CALM      29.96S
SEATTLE WA     PTSUNNY   56  49  77 SW3       30.06S
$$

*** WEATHER ACROSS MANITOBA...SASKATCHEWAN AND ONTARIO ***
                ***ONTARIO***

CITY           SKY/WX    TMP DP  RH WIND       PRES   REMARKS
GERALDTON      PTSUNNY   64  54  68 VRB2      29.85S
THUNDER BAY    CLOUDY    66  54  63 E9        29.85R
SIOUX LOOKOUT  MOSUNNY   68  52  56 S9        29.82S
TORONTO        PTSUNNY   81  66  61 S10       30.05F
BIG TROUT LK   SUNNY     50  30  46 NE8       29.79S
PICKLE LAKE    MOSUNNY   72  52  49 SW8       29.77S
DRYDEN         SUNNY     68  50  52 SW12G20   29.82F
KENORA         NOT AVBL
$$
                *** MANITOBA***

CITY           SKY/WX    TMP DP  RH WIND       PRES   REMARKS
BRANDON        MOSUNNY   79  41  25 NW10      29.81F
DAUPHIN        SUNNY     77  45  31 NW12      29.78R
ISLAND LAKE    MOSUNNY   52  32  46 NE9       29.79S
PILOT MOUND      N/A     75  43  31 NW14        N/A
THE PAS        PTSUNNY   46  36  66 N9        29.87
THOMPSON       CLOUDY    30  27  86 NE13G24   29.95R WCI  20
WINNIPEG       SUNNY     75  48  38 S5        29.78S
LYNN LAKE      CLOUDY    39  21  48 NE10      29.97S
CHURCHILL      CLOUDY    28  21  74 NW8       30.07S WCI  20
GILLAM         PTSUNNY   27  23  86 NE13G21   30.00F WCI  16
$$
                ***SASKATCHEWAN***

CITY           SKY/WX    TMP DP  RH WIND       PRES   REMARKS
ESTEVAN        MOSUNNY   75  43  31 W14       29.90F
KINDERSLEY     NOT AVBL
LLOYDMINSTER   MOSUNNY   68  45  42 N9        29.91R
PRINCE ALBERT  MOSUNNY   70  50  49 W3        29.82F
REGINA         MOSUNNY   75  48  38 NW10      29.87F


USA.gov is the U.S. government's official web portal to all federal, state and local government web resources and services.